Regional Weather Roundup
Issued by NWS Albany, NY

Home | Current Version | Previous Version | Graphics & Text | Print | Product List | Glossary Off
Versions: 1 2 3 4 5 6 7 8 9 10 11 12 13 14 15 16 17 18 19 20 21 22 23 24 25 26 27 28 29 30 31 32 33 34 35 36 37 38 39 40 41 42 43 44 45 46 47 48 49 50

000
ASUS41 KALY 070110
RWRALY

NEW YORK STATE HOURLY WEATHER ROUNDUP
NATIONAL WEATHER SERVICE ALBANY NY
900 PM EDT MON JUL 06 2015

NOTE: "FAIR" INDICATES FEW OR NO CLOUDS BELOW 12,000 FEET WITH NO
SIGNIFICANT WEATHER AND/OR NO OBSTRUCTIONS TO VISIBILITY.

NYZ032-033-038>043-046>054-057>066-NYZ062>081-070200-
EAST


CITY           SKY/WX    TMP DP  RH WIND       PRES   REMARKS
ALBANY         PTCLDY    79  66  64 S8        30.06F
GLENS FALLS    CLEAR     72  65  78 S5        30.05F
POUGHKEEPSIE   PTCLDY    75  66  73 CALM      30.08F
NEWBURGH       MOCLDY    75  68  78 VRB6      30.11F HAZE
MONTGOMERY     PTCLDY    74  66  76 CALM      30.08F
WHITE PLAINS   MOCLDY    73  65  75 SE7       30.11F
ISLIP          MOCLDY    74  64  71 SE9       30.10F
NEW YORK CITY  MOCLDY    76  63  64 SE12      30.09F
CENTRAL PARK   MOCLDY    75  62  64 S8        30.12F
$$

NYZ005>009-017-018-044>046-055-056-070200-
CENTRAL


CITY           SKY/WX    TMP DP  RH WIND       PRES   REMARKS
FULTON         MOCLDY    77  67  71 CALM      30.01F
SYRACUSE       MOCLDY    78  67  68 S3        30.01S
ROME           CLEAR     76  65  68 E5        30.05S
ELMIRA         CLEAR     75  69  81 S3        30.03F
BINGHAMTON     PTCLDY    72  66  81 S7        30.09S
MONTICELLO     MOCLDY    70  66  88 E6        30.13F
$$

NYZ026>034-041>043-070200-
NORTH


CITY           SKY/WX    TMP DP  RH WIND       PRES   REMARKS
WATERTOWN      CLEAR     72  64  76 CALM      30.00F
FORT DRUM      NOT AVBL
MASSENA        CLEAR     70  64  81 CALM      30.01F
SARANAC LAKE   CLEAR     65  58  78 W3        30.07S
PLATTSBURGH    CLEAR     70  61  73 CALM      30.02F
$$

NYZ001>004-010>016-019>021-070200-
WEST


CITY           SKY/WX    TMP DP  RH WIND       PRES   REMARKS
NIAGARA FALLS  MOCLDY    78  66  66 SW12      29.97S
BUFFALO        MOCLDY    75  69  81 S5        29.98F
DUNKIRK        CLEAR     72  67  84 CALM      29.99F
JAMESTOWN      CLEAR     72  64  78 S6        30.05F
WELLSVILLE     MOCLDY    71  65  81 S7        30.09F
ROCHESTER      MOCLDY    80  66  62 S9        29.99S
PENN YAN       MOCLDY    74  68  81 S5        30.03F
$$

             KEY
       WCI = WIND CHILL INDEX
       VSB = VISIBILITY
       HX  = HEAT INDEX
$$



USA.gov is the U.S. government's official web portal to all federal, state and local government web resources and services.